Погода в Оленеке

Хотите узнать прогноз погоды в Оленеке? Тогда Вам сюда: Погода в Оленеке

Поиск расширенной информации на нашем сайте:

Полезная информация:

Новости сайта



02.01.2020
Опубликован Долгосрочный прогноз погоды по городам России и ближнего зарубежья на январь 2020 года.
Карты: Прогноз на январь и февраль 2020 года, Сравнение прогнозируемой аномалии приземной температуры воздуха на январь 2020 года по разным моделям.




Погода в Оленеке - сегодня

Время (UTC), дата Ветер
(°,м/с) 
Видим.   Явления Облачность Т
(°С)
Тd
(°С)
f(%) Тe
(°С)
Pmin
(гПа)
dP
(гПа)
Po
(мм)
O2
(г/м3)
Тmin Tmax R s Состояние
почвы
09 23.11.20 270 (З) 20000 м    4/0 средняя 
[Ac trans]
-16.4 -18.3 85 -20  1012.7  1.4  738  318           
12 23.11.20 320 (СЗ) н/о    н/о 
-18 -20.1 84 -18  1014.5  1.6  739  320    -14       
15 23.11.20 270 (З) н/о    н/о 
-17.7 -19.5 86 -22  1015.8  1.3  740  320           
18 23.11.20 340 (С) н/о    н/о 
-17.3 -19.1 86 -17  1017.5  1.7  741  320           
21 23.11.20 300 (СЗ) н/о    н/о 
-18.2 -20.1 85 -18  1019.2  1.5  742  322           
00 24.11.20 320 (СЗ) 20000 м    3/0 средняя 
[Ac trans]
-17.7 -19.6 85 -20  1020.6  1.4  743  322  -18.7      21  равномерный
сухой снег
100% 
15 24.11.20 290 (З) н/о    н/о 
-18 -20 84 -21  1028.3  1.1  749  325           
18 24.11.20 300 (СЗ) н/о    н/о 
-20 -22.3 82 -23  1029.4  0.9  750  328           
21 24.11.20 310 (СЗ) н/о    н/о 
-21.7 -24.2 80 -22  1030.3  0.6  750  330           
00 25.11.20 300 (СЗ) 20000 м    ясно 
-23.1 -25.5 81 -26  1031.1  0.7  751  332  -23.3      21  равномерный
сухой снег
100% 
03 25.11.20 300 (СЗ) 20000 м    3/0 верхняя 
[Ci sp]
-25.5 -28.6 75 -26  1031.8  0.3  751  336  -25.6         
06 25.11.20 310 (СЗ) 20000 м    3/0 верхняя 
[Ci sp]
-25.7 -28.8 75 -29  1032.5  0.6  751  336           
09 25.11.20 310 (СЗ) 20000 м    ясно 
-26.2 -29.4 74 -27  1033.1  0.6  752  337           
12 25.11.20 тихо ()   н/о    н/о 
-25.2 -28.1 77 -25  1032.9  0.1  752  335    -22.6       
15 25.11.20 290 (З) н/о    н/о 
-27.2 -30.3 75 -28  1033.1  0.1  752  338           
18 25.11.20 330 (СЗ) н/о    н/о 
-26.2 -29 77 -27  1032.6  -0.3  751  337           
21 25.11.20 290 (З) н/о    н/о 
-26 -29 76 -27  1032.3  -0.3  751  336           
00 26.11.20 300 (СЗ) 20000 м    3/0 средняя 
[Ac trans]
-26.2 -29.4 74 -27  1032.3  751  337  -28.9    0.0  21  равномерный
сухой снег
100% 
03 26.11.20 330 (СЗ) 20000 м  слаб. снег  10/3 300 м средняя, верхняя 
[Sc|Ac As|Cs]
-27.4 -30.4 76 -28  1032.3  -0.1  751  338           
06 26.11.20 290 (З) 20000 м  в посл. час снег  6/0 верхняя 
[Cs]
-27.1 -30.1 76 -28  1032.2  -0.1  751  338           
09 26.11.20 310 (СЗ) 20000 м    ясно 
-28 -31.1 75 -29  1032.8  0.5  751  339           
12 26.11.20 310 (СЗ) н/о    н/о 
-28.1 -31.3 74 -29  1033.3  0.4  752  340    -25.9       
15 26.11.20 320 (СЗ) н/о    н/о 
-28.7 -31.8 75 -29  1033.5  0.1  752  340           
18 26.11.20 тихо ()   н/о    н/о 
-28.6 -31.8 74 -29  1034.1  0.7  752  340           
21 26.11.20 310 (СЗ) н/о    н/о 
-27 -30.1 75 -28  1034.6  0.6  753  338           
Время (UTC), дата Ветер
(°,м/с) 
Видим.   Явления Облачность Т
(°С)
Тd
(°С)
f(%) Тe
(°С)
Pmin
(гПа)
dP
(гПа)
Po
(мм)
O2
(г/м3)
Тmin Tmax R s Состояние
почвы

Для получения пояснительной информации подведите курсор к названию столбца.

ПОГОДА в Оленеке - архив

Всё, что Вы хотите узнать о погоде в Оленеке - удобно и подробно!

Выберите нужную дату (начиная с 1 января 2019* года) и нажмите кнопку "Найти".
Будут отображены архивные сводки погоды по пункту Оленек, начиная с указанной даты.


Отображать данные в формате CSV (для использования в таблицах Excel)


Внимание! Наш архив погоды предназначен исключительно для личного некоммерческого использования в познавательных целях. Если Вам необходимы официальные справки о состоянии погоды (для производственных, юридических, коммерческих и т.п. целей), обращайтесь в органы Росгидромета.

*Примечание: данная дата относится к архиву по метеостанциям СССР (Россия, СНГ, Балтия).
Архив по метеостанциям Зарубежной Европы и Азии (кроме Китая) хранится 10 дней, по другим регионам земного шара (Китай, Африка, Америка, Австралия, Океания) - 1 день.

Оленек - район местоположения метеостанции


Название, широта, долгота, высота метеостанции:
Оленек 68.5°ш. 112.4°д. 220 м над ур. моря [Российская Федерация]

Дополнительная информация

В oтличие oт бoльшинства пoгoдных сайтoв мы публикуем пoдрoбную метеoинфoрмацию в детальнoм прoфессиoнальнoм фoрмате.

Характеристики температуры и влажнoсти вoздуха измеряются на высoте 2 м в тени вдали oт зданий и деревьев.
Скoрoсть ветра измеряется на высoте 10 м (на урoвне рoста челoвека скoрoсть ветра ниже в 1.5-2 раза). Если метеoстанция нахoдится в гoрoде или в лесу, тo скoрoсть ветра занижена на 2-4 м/с пo сравнению с oткрытым местoм. Скoрoсть ветра над акватoриями крупных рек и oзёр, а также на вершинах хoлмoв на 2-5 м/с выше, чем в oбычных услoвиях.
Атмoсфернoе давление в разных тoчках местнoсти мoжет значительнo oтличаться oт давления на метеoстанции, в зависимoсти oт услoвий рельефа (при пoдъёме на 10 м давление пoнижается примернo на 1 мм рт.ст.).